User: anonymous   Login
Location: Oronoko Observatory
(41.9167°N, 86.3833°W)
Time: 22:17:21
(UTC-04:00)
Language:

PAYLOAD A - Orbit

View from above orbital plane
View from above orbital plane
View from above satellite
View from above satellite

Ground track
Ground track

The orbit data is extracted from the following two-line orbital elements,

1 27840U 03031A   17146.60854341 -.00000021 +00000-0 +68027-5 0  9990
2 27840 098.2045 145.0468 0098174 183.3569 176.6972 14.38881572730110
Epoch (UTC): 26 May 2017 14:36:18
Eccentricity: 0.0098174
inclination: 98.2045°
perigee height: 692 km
apogee height: 832 km
right ascension of ascending node: 145.0468°
argument of perigee: 183.3569°
revolutions per day: 14.38881572
mean anomaly at epoch: 176.6972°
orbit number at epoch: 73011

The dashed part of the orbit path shows where the satellite is in the earth's shadow,  

DLR